Regional Weather Roundup
Issued by NWS

Home | Current Version | Previous Version | Text Only | Print | Product List | Glossary Off
Versions: 1 2 3 4 5 6 7 8 9 10 11 12 13 14 15 16 17 18 19 20 21 22 23 24 25 26 27 28 29 30 31 32 33 34 35 36 37 38 39 40 41 42 43 44 45 46 47 48 49 50

000
ASUS45 KBOI 012310
RWRID

IDAHO REGIONAL WEATHER ROUNDUP
NATIONAL WEATHER SERVICE BOISE ID
500 PM MDT WED JUL 01 2015

NOTE: "FAIR" INDICATES FEW OR NO CLOUDS BELOW 12000 FEET
WITH NO SIGNIFICANT WEATHER AND/OR OBSTRUCTIONS TO VISIBILITY

IDZ012-014-020000-
SOUTHWEST IDAHO


CITY           SKY/WX    TMP DP  RH WIND       PRES   REMARKS
BOISE          SUNNY    102  43  13 NW12G22   29.93F HX  97
CALDWELL       SUNNY    100  46  16 N7        29.92F HX  96
MOUNTAIN HOME  SUNNY    103  42  12 NW14G20   29.91F HX  98
$$

IDZ016-017-020000-
SOUTHCENTRAL IDAHO


CITY           SKY/WX    TMP DP  RH WIND       PRES   REMARKS
BURLEY         MOSUNNY   93  49  22 W12       30.01F HX  90
JEROME         MOSUNNY   97  46  17 SW10      30.01  HX  93
TWIN FALLS     MOSUNNY   98  46  17 NW8       30.01F HX  94
$$

IDZ019>023-020000-
SOUTHEAST IDAHO


CITY           SKY/WX    TMP DP  RH WIND       PRES   REMARKS
IDAHO FALLS    SUNNY     92  43  18 S8        30.05F
POCATELLO      SUNNY     95  45  17 W16       30.04F HX  91
REXBURG        SUNNY     90  48  23 S12       30.06F
$$

IDZ006-010-011-018-031-032-020000-
CENTRAL IDAHO MOUNTAINS


CITY           SKY/WX    TMP DP  RH WIND       PRES   REMARKS
MCCALL         SUNNY     89  33  13 VRB5      30.11F
HAILEY         MOSUNNY   93  43  17 SW10G18   30.11S
STANLEY          N/A     87  32  14 VRB7G17   30.22F
SALMON         SUNNY     93  45  18 N14       29.95F
CHALLIS        SUNNY     97  22   7 N6G17     30.03F HX  90
$$

IDZ002-004-006-007-026-020000-
NORTHERN IDAHO


CITY           SKY/WX    TMP DP  RH WIND       PRES   REMARKS
LEWISTON       SUNNY    100  44  14 W9        29.90F HX  96
LOWELL           N/A    102  45  14 CALM      29.89F HX  98
COEUR D`ALENE  SUNNY     93  48  21 W14       29.95F HX  90
MULLAN PASS    MOSUNNY   78  44  29 VRB6      30.23S
$$



USA.gov is the U.S. government's official web portal to all federal, state and local government web resources and services.